N9MXT-14 Weather Reports


Display with metric or nautical units.
time (UTC)temp
F
wind
direction
speed
MPH
gust
MPH
rain 1hr
in
rain 24hr
in
rain mn
in
humidity
%
barometer
mb
20190426114015 47 353 3.0 7.0 0.00 0.21 0.05 80 1007.9
20190426113516 47 311 3.0 7.0 0.00 0.21 0.05 81 1007.9
20190426113016 47 324 3.0 7.0 0.00 0.21 0.05 83 1007.9
20190426112516 46 312 2.0 5.0 0.00 0.21 0.05 84 1007.9
20190426112016 46 310 2.0 4.0 0.00 0.21 0.05 86 1007.8
20190426111516 46 313 2.0 4.0 0.00 0.21 0.05 87 1007.7
20190426111016 46 300 2.0 4.0 0.00 0.21 0.05 88 1007.6
20190426110517 46 284 2.0 4.0 0.00 0.21 0.05 89 1007.7
20190426110019 46 309 1.0 5.0 0.00 0.21 0.05 90 1007.6
20190426105519 46 300 1.0 5.0 0.00 0.21 0.05 90 1007.6
20190426105019 46 283 1.0 4.0 0.00 0.21 0.05 91 1007.4
20190426104519 47 303 1.0 4.0 0.00 0.21 0.05 91 1007.6
20190426104019 47 302 1.0 4.0 0.00 0.21 0.05 91 1007.4
20190426103519 47 293 1.0 5.0 0.00 0.21 0.05 91 1007.5
20190426103019 47 313 2.0 6.0 0.00 0.21 0.05 92 1007.5
20190426102517 47 279 2.0 6.0 0.00 0.21 0.05 92 1007.4
20190426102018 47 278 1.0 4.0 0.00 0.21 0.05 93 1007.5
20190426101517 47 283 1.0 3.0 0.00 0.21 0.05 93 1007.4
20190426101017 47 324 1.0 4.0 0.00 0.21 0.05 93 1007.3
20190426100519 47 274 1.0 4.0 0.00 0.21 0.05 93 1007.3
20190426100019 47 268 1.0 3.0 0.00 0.21 0.05 93 1007.4
20190426095518 47 277 1.0 3.0 0.00 0.21 0.05 92 1007.3
20190426095019 47 273 1.0 2.0 0.00 0.21 0.05 92 1007.4
20190426094519 47 314 0.0 2.0 0.00 0.21 0.05 92 1007.4
20190426094018 47 280 0.0 2.0 0.00 0.21 0.05 92 1007.5
20190426093517 47 286 0.0 1.0 0.00 0.21 0.05 92 1007.5
20190426093017 47 312 0.0 2.0 0.00 0.21 0.05 92 1007.6
20190426092517 47 287 0.0 2.0 0.00 0.21 0.05 91 1007.6
20190426092017 47 285 0.0 2.0 0.00 0.21 0.05 91 1007.5
20190426091527 47 282 0.0 2.0 0.00 0.21 0.05 91 1007.4
20190426091019 47 274 0.0 2.0 0.00 0.21 0.05 91 1007.3
20190426090518 47 276 0.0 1.0 0.00 0.21 0.05 91 1007.4
20190426090019 47 295 0.0 1.0 0.00 0.21 0.05 91 1007.4
20190426085519 48 297 0.0 1.0 0.00 0.21 0.05 91 1007.3
20190426085017 48 280 0.0 1.0 0.00 0.21 0.05 90 1007.3
20190426084517 48 314 0.0 1.0 0.00 0.21 0.05 90 1007.3
20190426084017 48 314 0.0 2.0 0.00 0.21 0.05 90 1007.5
20190426083519 48 312 0.0 2.0 0.00 0.21 0.05 90 1007.4
20190426083017 48 307 1.0 3.0 0.00 0.21 0.05 90 1007.4
20190426082518 48 318 1.0 3.0 0.00 0.21 0.05 90 1007.5
20190426082017 48 312 1.0 3.0 0.00 0.21 0.05 90 1007.5
20190426081517 48 311 1.0 3.0 0.00 0.21 0.05 90 1007.5
20190426081017 48 300 1.0 3.0 0.00 0.21 0.05 90 1007.6
20190426080517 48 310 1.0 3.0 0.00 0.21 0.05 90 1007.5
20190426080017 48 302 1.0 3.0 0.00 0.21 0.05 90 1007.5
20190426075516 48 306 1.0 3.0 0.00 0.21 0.05 90 1007.5
20190426075017 48 317 1.0 3.0 0.00 0.21 0.05 89 1007.5
20190426074517 48 320 1.0 2.0 0.00 0.21 0.05 89 1007.4
20190426074017 48 323 1.0 3.0 0.00 0.21 0.05 89 1007.4
20190426073517 49 302 1.0 3.0 0.00 0.21 0.05 89 1007.4
20190426073116 49 288 1.0 3.0 0.00 0.21 0.05 88 1007.5
20190426072517 49 316 1.0 3.0 0.00 0.21 0.05 88 1007.6
20190426072015 49 320 1.0 3.0 0.00 0.21 0.05 88 1007.5
20190426071517 49 319 2.0 3.0 0.00 0.21 0.05 88 1007.5
20190426071021 49 341 2.0 5.0 0.00 0.21 0.05 88 1007.5
20190426070515 49 341 2.0 7.0 0.00 0.21 0.05 87 1007.5
20190426070016 49 3 2.0 7.0 0.00 0.21 0.05 87 1007.6
20190426065517 49 344 3.0 5.0 0.00 0.21 0.05 87 1007.6
20190426065016 49 329 3.0 4.0 0.01 0.21 0.05 87 1007.7
20190426064517 49 330 2.0 4.0 0.01 0.21 0.05 87 1007.8
20190426064017 49 338 2.0 5.0 0.01 0.21 0.05 88 1007.8
20190426063517 49 338 3.0 5.0 0.02 0.21 0.05 87 1007.7
20190426063016 49 336 3.0 8.0 0.02 0.21 0.05 87 1007.7
20190426062516 49 357 3.0 8.0 0.03 0.21 0.05 87 1007.5
20190426062017 49 51 3.0 9.0 0.03 0.21 0.05 87 1007.1
20190426061517 49 46 4.0 9.0 0.04 0.21 0.05 87 1007.3
20190426061015 49 66 5.0 8.0 0.04 0.21 0.05 88 1007.5
20190426060515 49 59 5.0 15.0 0.04 0.21 0.05 88 1007.6
20190426060016 49 27 4.0 15.0 0.04 0.21 0.05 88 1008.2
20190426055517 49 19 4.0 10.0 0.05 0.21 0.05 89 1008.3
20190426055015 49 359 5.0 10.0 0.04 0.20 0.04 88 1008.4
20190426054521 50 357 5.0 10.0 0.04 0.20 0.04 88 1008.7
20190426054016 50 7 5.0 9.0 0.05 0.20 0.04 89 1008.7
20190426053516 50 42 5.0 10.0 0.04 0.19 0.03 89 1008.6
20190426053016 50 34 5.0 13.0 0.04 0.18 0.02 89 1008.4
20190426052516 50 342 5.0 13.0 0.04 0.18 0.02 88 1008.3
20190426052016 50 343 4.0 7.0 0.05 0.18 0.02 88 1008.2
20190426051516 50 336 4.0 11.0 0.05 0.17 0.01 88 1008.2
20190426051016 50 32 4.0 11.0 0.06 0.17 0.01 87 1008.2
20190426050516 50 47 5.0 8.0 0.08 0.17 0.01 88 1008.2
20190426050015 50 19 5.0 8.0 0.09 0.17 0.01 88 1008.4
20190426045517 50 20 5.0 11.0 0.09 0.16 0.16 88 1008.2
20190426045016 51 330 6.0 11.0 0.10 0.16 0.16 88 1008.1
20190426044518 51 335 6.0 11.0 0.10 0.15 0.15 88 1008.1
20190426044017 51 26 6.0 11.0 0.11 0.15 0.15 89 1008.2
20190426043517 51 37 5.0 11.0 0.11 0.15 0.15 89 1008.3
20190426043021 51 342 4.0 9.0 0.11 0.14 0.14 90 1008.1
20190426042520 51 14 4.0 9.0 0.11 0.14 0.14 90 1008.1
20190426042020 51 4 5.0 9.0 0.09 0.12 0.12 90 1008.2
20190426041520 51 354 5.0 9.0 0.10 0.12 0.12 90 1008.2
20190426041021 51 328 5.0 9.0 0.08 0.10 0.10 90 1008.3
20190426040520 51 9 5.0 11.0 0.07 0.09 0.09 90 1008.2
20190426040022 51 22 5.0 11.0 0.06 0.08 0.08 90 1008.1
20190426035520 51 36 5.0 10.0 0.06 0.07 0.07 89 1008.2
20190426035021 51 316 5.0 13.0 0.05 0.06 0.06 89 1008.1
20190426034522 51 16 5.0 13.0 0.05 0.05 0.05 89 1008.2
20190426034021 51 345 5.0 12.0 0.04 0.04 0.04 89 1008.1
20190426033520 51 7 4.0 10.0 0.04 0.04 0.04 89 1008.2
20190426033024 51 325 4.0 9.0 0.03 0.03 0.03 89 1008.2
20190426032521 51 14 5.0 11.0 0.03 0.03 0.03 89 1008.2
20190426032022 51 325 5.0 11.0 0.03 0.03 0.03 88 1008.2
20190426031520 51 324 5.0 11.0 0.02 0.02 0.02 88 1008.2
20190426031020 51 44 5.0 11.0 0.02 0.02 0.02 88 1008.2
20190426030520 51 48 5.0 10.0 0.02 0.02 0.02 88 1008.2
20190426030028 51 15 5.0 10.0 0.02 0.02 0.02 87 1008.1
20190426025522 52 356 5.0 10.0 0.01 0.01 0.01 86 1008.1
20190426025020 52 356 5.0 10.0 0.00 0.00 0.00 85 1008.0
20190426024522 52 356 6.0 15.0 0.00 0.00 0.00 84 1008.0
20190426024020 53 342 6.0 15.0 0.00 0.00 0.00 82 1008.0
20190426023520 53 46 6.0 12.0 0.00 0.00 0.00 81 1007.7
20190426023026 53 10 6.0 12.0 0.00 0.00 0.00 80 1007.8
20190426022522 54 342 6.0 12.0 0.00 0.00 0.00 79 1007.9
20190426022020 54 40 7.0 15.0 0.00 0.00 0.00 78 1007.8
20190426021521 54 249 6.0 15.0 0.00 0.00 0.00 77 1007.7
20190426021021 55 8 6.0 11.0 0.00 0.00 0.00 76 1007.5
20190426020521 55 23 7.0 14.0 0.00 0.00 0.00 75 1007.6
20190426020026 55 19 7.0 14.0 0.00 0.00 0.00 75 1007.5
20190426015520 55 340 7.0 16.0 0.00 0.00 0.00 75 1007.5
20190426015021 56 326 8.0 16.0 0.00 0.00 0.00 75 1007.4
20190426014522 56 328 7.0 14.0 0.00 0.00 0.00 74 1007.3
20190426014022 56 34 6.0 12.0 0.00 0.00 0.00 74 1007.2
20190426013522 56 20 7.0 13.0 0.00 0.00 0.00 74 1007.1
20190426013025 56 8 7.0 15.0 0.00 0.00 0.00 73 1007.1
20190426012521 57 355 7.0 14.0 0.00 0.00 0.00 73 1007.0
20190426012022 57 342 7.0 13.0 0.00 0.00 0.00 73 1006.8
20190426011521 57 8 7.0 14.0 0.00 0.00 0.00 73 1006.9
20190426011021 58 44 8.0 14.0 0.00 0.00 0.00 72 1006.8
20190426010521 58 339 8.0 15.0 0.00 0.00 0.00 72 1006.6
20190426010022 58 16 7.0 12.0 0.00 0.00 0.00 71 1006.6
20190426005523 59 37 6.0 12.0 0.00 0.00 0.00 72 1006.4
20190426005021 59 40 5.0 10.0 0.00 0.00 0.00 72 1006.4
20190426004523 60 338 5.0 9.0 0.00 0.00 0.00 71 1006.5
20190426004023 60 343 5.0 8.0 0.00 0.00 0.00 70 1006.4
20190426003523 61 356 3.0 8.0 0.00 0.00 0.00 69 1006.2
20190426003021 61 273 1.0 5.0 0.00 0.00 0.00 58 1006.3
20190426002522 61 359 0.0 2.0 0.00 0.00 0.00 50 1006.2
20190426002021 62 42 0.0 2.0 0.00 0.00 0.00 50 1006.3
20190426001522 62 348 0.0 1.0 0.00 0.00 0.00 49 1006.2
20190426001021 62 359 0.0 1.0 0.00 0.00 0.00 49 1006.2
20190426000522 62 359 1.0 2.0 0.00 0.00 0.00 48 1006.1
20190426000021 62 359 1.0 3.0 0.00 0.00 0.00 48 1006.3
20190425235523 62 125 2.0 4.0 0.00 0.00 0.00 47 1006.2
20190425235021 62 2 2.0 4.0 0.00 0.00 0.00 50 1006.2
20190425234521 63 37 1.0 2.0 0.00 0.00 0.00 48 1005.8
20190425234023 63 68 1.0 3.0 0.00 0.00 0.00 47 1005.6
20190425233522 63 129 1.0 3.0 0.00 0.00 0.00 47 1005.6
20190425233022 63 76 1.0 3.0 0.00 0.00 0.00 46 1005.5
20190425232521 64 104 1.0 3.0 0.00 0.00 0.00 47 1005.4
20190425232021 64 162 1.0 3.0 0.00 0.00 0.00 46 1005.5
20190425231521 64 144 2.0 4.0 0.00 0.00 0.00 46 1005.5
20190425231021 64 71 2.0 4.0 0.00 0.00 0.00 46 1005.6
20190425230521 64 79 2.0 4.0 0.00 0.00 0.00 46 1005.6
20190425230021 64 79 2.0 4.0 0.00 0.00 0.00 45 1005.6
20190425225523 64 75 2.0 4.0 0.00 0.00 0.00 44 1005.6
20190425225021 65 72 2.0 3.0 0.00 0.00 0.00 45 1005.6
20190425224523 65 162 2.0 5.0 0.00 0.00 0.00 45 1005.8
20190425224021 65 70 3.0 7.0 0.00 0.00 0.00 44 1005.7
20190425223523 65 145 3.0 7.0 0.00 0.00 0.00 45 1005.6
20190425223025 65 83 3.0 7.0 0.00 0.00 0.00 44 1005.6
20190425222523 66 79 2.0 5.0 0.00 0.00 0.00 44 1005.7
20190425222023 66 115 2.0 5.0 0.00 0.00 0.00 44 1005.7
20190425221523 67 192 2.0 5.0 0.00 0.00 0.00 43 1005.7
20190425221021 67 93 2.0 5.0 0.00 0.00 0.00 42 1005.7
20190425220521 67 203 3.0 6.0 0.00 0.00 0.00 42 1005.7
20190425220022 67 149 3.0 6.0 0.00 0.00 0.00 42 1005.7
20190425215522 68 93 3.0 6.0 0.00 0.00 0.00 41 1005.7
20190425215023 69 98 2.0 5.0 0.00 0.00 0.00 41 1005.5
20190425214521 70 115 0.0 4.0 0.00 0.00 0.00 38 1005.6
20190425214021 71 343 0.0 1.0 0.00 0.00 0.00 36 1005.5
20190425213523 70 342 0.0 2.0 0.00 0.00 0.00 36 1005.6
20190425213022 70 3 1.0 3.0 0.00 0.00 0.00 38 1005.7
20190425212522 71 23 1.0 4.0 0.00 0.00 0.00 36 1005.9
20190425212023 71 45 1.0 4.0 0.00 0.00 0.00 35 1006.0
20190425211522 71 135 1.0 3.0 0.00 0.00 0.00 35 1006.0
20190425211021 71 66 1.0 3.0 0.00 0.00 0.00 37 1006.0
20190425210523 71 124 0.0 3.0 0.00 0.00 0.00 35 1006.1
20190425210021 70 243 0.0 2.0 0.00 0.00 0.00 35 1006.2
20190425205521 70 1 1.0 2.0 0.00 0.00 0.00 35 1006.2
20190425205023 70 243 1.0 3.0 0.00 0.00 0.00 35 1006.3
20190425204523 70 331 1.0 3.0 0.00 0.00 0.00 35 1006.3
20190425204021 70 332 1.0 4.0 0.00 0.00 0.00 34 1006.2
20190425203521 70 354 1.0 4.0 0.00 0.00 0.00 35 1006.4
20190425203022 70 351 1.0 3.0 0.00 0.00 0.00 37 1006.3
20190425202523 70 28 1.0 3.0 0.00 0.00 0.00 37 1006.6
20190425202023 70 146 1.0 5.0 0.00 0.00 0.00 38 1006.8
20190425201523 70 347 1.0 5.0 0.00 0.00 0.00 40 1006.9
20190425201022 70 25 1.0 2.0 0.00 0.00 0.00 39 1006.9
20190425200523 69 258 1.0 5.0 0.00 0.00 0.00 41 1007.1
20190425200021 69 251 2.0 5.0 0.00 0.00 0.00 39 1007.1
20190425195521 69 18 1.0 3.0 0.00 0.00 0.00 40 1007.1
20190425195022 70 312 1.0 5.0 0.00 0.00 0.00 40 1007.1
20190425194522 70 162 2.0 4.0 0.00 0.00 0.00 40 1007.2
20190425194021 69 19 2.0 5.0 0.00 0.00 0.00 41 1007.1
20190425193523 69 15 1.0 4.0 0.00 0.00 0.00 42 1007.1
20190425193021 69 328 1.0 4.0 0.00 0.00 0.00 41 1007.2
20190425192523 69 3 1.0 4.0 0.00 0.00 0.00 42 1007.3
20190425192023 69 37 2.0 5.0 0.00 0.00 0.00 42 1007.3
20190425191523 69 217 2.0 5.0 0.00 0.00 0.00 40 1007.4
20190425191023 71 342 1.0 5.0 0.00 0.00 0.00 41 1007.5
20190425190523 71 201 1.0 4.0 0.00 0.00 0.00 40 1007.4
20190425190021 71 9 1.0 4.0 0.00 0.00 0.00 40 1007.5
20190425185521 72 201 1.0 2.0 0.00 0.00 0.00 39 1007.5
20190425185023 71 219 1.0 2.0 0.00 0.00 0.00 40 1007.9
20190425184523 70 78 1.0 2.0 0.00 0.00 0.00 41 1007.8
20190425184023 69 34 1.0 3.0 0.00 0.00 0.00 43 1008.1
20190425183523 69 18 1.0 3.0 0.00 0.00 0.00 41 1008.3
20190425183022 68 1 2.0 4.0 0.00 0.00 0.00 45 1008.4
20190425182523 68 51 2.0 4.0 0.00 0.00 0.00 43 1008.4
20190425182022 68 160 2.0 6.0 0.00 0.00 0.00 43 1008.4
20190425181523 68 325 1.0 5.0 0.00 0.00 0.00 42 1008.4
20190425181023 68 250 1.0 5.0 0.00 0.00 0.00 43 1008.5
20190425180523 68 337 2.0 6.0 0.00 0.00 0.00 43 1008.6
20190425180021 68 193 2.0 6.0 0.00 0.00 0.00 42 1008.7
20190425175523 68 360 1.0 6.0 0.00 0.00 0.00 44 1008.8
20190425175021 68 331 1.0 3.0 0.00 0.00 0.00 44 1008.9
20190425174520 66 330 1.0 3.0 0.00 0.00 0.00 45 1008.9
20190425174021 66 323 2.0 5.0 0.00 0.00 0.00 47 1008.9
20190425173519 66 10 2.0 5.0 0.00 0.00 0.00 45 1008.8
20190425173023 66 347 2.0 4.0 0.00 0.00 0.00 45 1008.6
20190425172521 65 300 2.0 4.0 0.00 0.00 0.00 46 1008.6
20190425172021 65 352 2.0 3.0 0.00 0.00 0.00 48 1008.7
20190425171521 65 336 2.0 4.0 0.00 0.00 0.00 46 1008.7
20190425171021 65 323 1.0 4.0 0.00 0.00 0.00 46 1008.7
20190425170524 65 275 1.0 3.0 0.00 0.00 0.00 45 1008.7
20190425170020 64 199 1.0 3.0 0.00 0.00 0.00 45 1008.8
20190425165523 64 201 1.0 4.0 0.00 0.00 0.00 46 1008.8
20190425165040 64 113 2.0 4.0 0.00 0.00 0.00 45 1008.9
20190425164521 64 108 2.0 4.0 0.00 0.00 0.00 46 1009.1
20190425164023 64 72 1.0 3.0 0.00 0.00 0.00 47 1009.1
20190425163522 63 128 1.0 3.0 0.00 0.00 0.00 46 1009.0
20190425163023 63 345 2.0 4.0 0.00 0.00 0.00 46 1009.0
20190425162522 63 5 2.0 4.0 0.00 0.00 0.00 46 1009.2
20190425162024 63 37 2.0 3.0 0.00 0.00 0.00 45 1009.1
20190425161523 63 115 1.0 3.0 0.00 0.00 0.00 47 1009.3
20190425161021 63 84 1.0 3.0 0.00 0.00 0.00 46 1009.4
20190425160523 63 84 1.0 3.0 0.00 0.00 0.00 48 1009.7
20190425160021 62 330 1.0 3.0 0.00 0.00 0.00 49 1009.8
20190425155523 61 320 1.0 3.0 0.00 0.00 0.00 50 1009.8
20190425155023 61 339 1.0 4.0 0.00 0.00 0.00 48 1009.9
20190425154521 62 4 1.0 4.0 0.00 0.00 0.00 48 1010.1
20190425154023 61 186 1.0 5.0 0.00 0.00 0.00 48 1010.0
20190425153521 61 134 1.0 5.0 0.00 0.00 0.00 48 1010.1
20190425153023 60 225 1.0 3.0 0.00 0.00 0.00 48 1010.1
20190425152521 60 285 1.0 3.0 0.00 0.00 0.00 49 1010.0
20190425152022 60 319 1.0 5.0 0.00 0.00 0.00 48 1010.0
20190425151523 60 320 1.0 5.0 0.00 0.00 0.00 48 1010.1
20190425151019 59 176 1.0 4.0 0.00 0.00 0.00 48 1010.1
20190425150520 59 237 1.0 3.0 0.00 0.00 0.00 49 1010.2
20190425150023 58 327 1.0 2.0 0.00 0.00 0.00 49 1010.2
20190425145521 58 335 1.0 3.0 0.00 0.00 0.00 48 1010.2
20190425145023 58 1 1.0 3.0 0.00 0.00 0.00 47 1010.3
20190425144523 58 40 1.0 3.0 0.00 0.00 0.00 46 1010.3
20190425143521 58 306 1.0 3.0 0.00 0.00 0.00 46 1010.5
20190425143022 58 321 0.0 2.0 0.00 0.00 0.00 49 1010.5
20190425142523 58 193 0.0 2.0 0.00 0.00 0.00 47 1010.7
20190425142023 58 216 1.0 2.0 0.00 0.00 0.00 49 1010.9
20190425141522 57 248 0.0 2.0 0.00 0.00 0.00 51 1010.9
20190425141022 57 40 0.0 2.0 0.00 0.00 0.00 51 1010.9
20190425140523 56 248 0.0 2.0 0.00 0.00 0.00 50 1011.0
20190425140020 56 328 0.0 1.0 0.00 0.00 0.00 53 1010.9
20190425135522 56 326 0.0 1.0 0.00 0.00 0.00 54 1011.0
20190425135020 56 111 0.0 2.0 0.00 0.00 0.00 53 1011.2
20190425134523 55 43 0.0 2.0 0.00 0.00 0.00 54 1011.2
20190425134023 55 155 0.0 2.0 0.00 0.00 0.00 55 1011.1
20190425133520 55 127 0.0 2.0 0.00 0.00 0.00 55 1011.3
20190425133022 54 146 0.0 3.0 0.00 0.00 0.00 57 1011.3
20190425132519 54 146 0.0 3.0 0.00 0.00 0.00 56 1011.2
20190425132020 53 66 0.0 2.0 0.00 0.00 0.00 60 1011.1
20190425131520 53 70 1.0 2.0 0.00 0.00 0.00 60 1011.0
20190425131019 52 190 1.0 3.0 0.00 0.00 0.00 63 1011.0
20190425130520 51 168 2.0 3.0 0.00 0.00 0.00 64 1010.9
20190425130024 50 172 2.0 4.0 0.00 0.00 0.00 67 1010.9
20190425125522 50 152 1.0 4.0 0.00 0.00 0.00 70 1011.0
20190425125020 50 172 0.0 3.0 0.00 0.00 0.00 71 1010.9
20190425124519 49 338 0.0 1.0 0.00 0.00 0.00 76 1011.0
20190425124020 49 338 0.0 1.0 0.00 0.00 0.00 76 1011.1
20190425123520 48 338 0.0 1.0 0.00 0.00 0.00 76 1011.2
20190425123023 47 338 0.0 1.0 0.00 0.00 0.00 79 1010.9
20190425122520 46 338 0.0 0.0 0.00 0.00 0.00 82 1010.9
20190425122022 45 338 0.0 0.0 0.00 0.00 0.00 87 1010.8
20190425121523 44 338 0.0 0.0 0.00 0.00 0.00 90 1011.0
20190425121022 44 338 0.0 0.0 0.00 0.00 0.00 91 1011.0
20190425120520 43 338 0.0 0.0 0.00 0.00 0.00 91 1011.2
20190425120022 42 338 0.0 0.0 0.00 0.00 0.00 92 1011.2
20190425115523 42 338 0.0 0.0 0.00 0.00 0.00 92 1011.1
20190425115020 41 338 0.0 1.0 0.00 0.00 0.00 92 1011.1
20190425114520 41 338 0.0 1.0 0.00 0.00 0.00 92 1011.2